Temperature
16 16 16 17 17 18 20 22 25 24 25 24 24 25 23 21 21 18 17 16 16 16 17 17 16 17 17 17 17 17 17 16 16 16 16 16 16 16 16 16 16 16 16 16 16 16 16 16 16
15 15 16 17 17 18 21 22 24 24 23 23 23 23 23 20 18 17 16 16 16 16 16 16 16 16 16 16 16 16 16 16 16 16 16 16 16 16 16 16 16 16 16 16 16 16 16 16 16
15 16 17 18 19 20 22 23 23 23 22 22 23 22 22 19 17 16 16 16 16 15 16 16 16 16 16 16 16 16 16 16 16 16 16 16 16 16 16 16 16 16 16 16 16 16 16 16 16
15 16 18 18 19 21 23 23 22 22 22 22 22 21 19 18 17 16 16 16 15 15 16 16 16 16 16 16 16 16 16 16 16 16 16 16 16 16 16 16 16 16 16 16 16 16 15 15 15
15 17 17 18 19 22 23 23 22 22 22 22 22 20 17 17 16 16 16 16 15 15 15 16 16 16 16 16 16 16 16 16 16 16 16 16 16 16 16 16 16 15 15 15 15 15 15 15 15
16 18 18 18 20 22 23 23 23 22 22 22 21 20 17 16 16 16 16 15 15 15 15 15 15 15 15 15 16 16 16 16 16 15 15 15 15 15 15 15 15 15 15 15 15 15 15 15 15
16 17 18 19 21 21 22 23 22 22 22 22 22 20 16 16 16 16 15 15 15 15 15 15 15 15 15 15 15 15 15 15 15 15 15 15 15 15 15 15 15 15 15 15 15 15 15 15 15
16 17 18 19 20 21 22 22 22 22 21 22 21 19 17 16 15 15 15 15 15 14 14 14 15 15 15 15 15 15 15 15 15 15 15 15 14 14 14 14 14 14 14 14 14 14 14 14 14
16 16 17 19 21 21 21 21 21 20 20 20 20 19 18 16 15 15 15 14 14 14 14 14 14 14 15 15 15 15 15 15 14 14 14 14 14 14 14 14 14 14 14 14 14 14 14 14 14
16 15 18 20 20 20 20 20 20 20 19 19 18 17 16 15 15 15 14 14 14 14 14 14 14 14 14 14 14 14 14 14 14 14 14 14 14 14 14 14 14 14 14 14 14 13 13 13 13
16 16 18 19 19 19 19 20 20 19 18 19 18 16 15 15 15 15 14 14 14 14 14 14 14 14 14 14 14 14 14 14 14 13 13 13 13 13 13 13 13 13 13 13 13 13 13 13 13
17 17 18 18 17 18 18 19 19 19 19 19 18 17 16 15 15 15 15 14 14 14 14 14 14 14 14 13 13 13 13 13 13 13 13 13 13 13 13 13 13 13 13 13 12 12 12 12 12
16 17 18 17 17 17 17 18 18 18 18 18 18 16 16 15 15 15 15 14 14 13 13 13 13 13 13 13 13 13 13 13 13 13 13 13 13 12 12 12 12 12 12 12 12 12 12 12 12
17 16 17 17 17 17 16 17 17 17 17 17 17 16 16 15 15 15 15 14 14 13 13 13 13 13 13 13 13 12 12 12 12 12 12 12 12 12 12 12 12 12 12 11 11 11 11 11 11
16 15 16 16 16 16 16 15 16 17 17 17 17 16 16 15 15 15 14 14 14 13 13 13 13 13 13 12 12 12 12 12 12 12 12 12 12 12 11 11 11 11 11 11 11 11 11 10 10
15 14 14 16 16 16 15 14 16 17 17 17 17 16 16 16 15 15 14 14 13 13 13 13 13 12 12 12 12 12 12 12 12 12 12 12 11 11 11 11 11 11 11 11 10 10 10 10 10
14 13 14 15 16 16 14 14 16 17 17 17 17 17 16 16 15 15 14 14 13 13 13 12 12 12 12 12 12 11 11 11 11 11 11 11 11 11 11 11 10 10 10 10 10 9 9 9 9
13 14 15 15 16 15 14 14 15 17 17 17 17 17 16 16 15 15 14 14 13 13 12 12 12 12 12 11 11 11 11 11 11 11 11 10 10 10 10 10 10 10 10 9 9 9 9 8 8
15 15 16 16 15 15 14 14 15 16 16 16 17 17 16 16 15 15 14 13 13 12 12 12 12 11 11 11 11 11 11 10 10 10 10 10 10 10 10 10 9 9 9 9 9 8 8 8 8
14 14 15 15 15 14 14 14 15 15 15 16 16 17 16 16 15 14 14 13 13 12 12 12 11 11 11 11 11 10 10 10 10 10 10 10 9 9 9 9 9 9 9 9 8 8 8 7 7
14 13 14 14 14 14 13 13 14 15 15 16 16 16 16 15 15 14 13 13 12 12 11 11 11 11 11 10 10 10 10 9 9 9 9 9 9 9 9 8 8 8 8 8 8 7 7 7 7
13 14 14 14 12 11 13 11 14 15 14 14 15 15 15 15 14 14 13 12 12 11 11 11 11 10 10 10 10 10 9 9 9 9 9 9 8 8 8 8 8 8 7 7 7 7 6 6 6
13 14 14 13 12 11 12 11 12 14 14 14 13 14 14 14 14 13 12 12 11 11 10 10 10 10 10 10 10 9 9 9 9 8 8 8 8 8 8 8 7 7 7 7 7 6 6 6 5
12 12 12 12 11 9 11 11 12 13 14 14 13 14 14 14 13 13 12 11 11 10 10 10 9 9 9 9 9 9 9 8 8 8 8 8 8 8 7 7 7 7 6 6 6 6 6 5 5
11 10 9 8 8 9 12 12 12 13 14 13 13 13 13 13 13 12 11 11 10 10 9 9 9 9 9 9 9 8 8 8 8 8 7 7 7 7 7 7 6 6 6 6 6 5 5 5 5
10 10 9 8 9 10 12 11 12 13 13 13 13 13 12 12 12 11 11 10 9 9 9 9 9 8 8 8 8 8 8 7 7 7 7 7 7 6 6 6 6 6 6 5 5 5 5 4 4
9 9 11 10 10 10 11 12 12 12 12 12 12 12 11 11 11 10 10 9 9 8 8 8 8 8 8 8 8 8 7 7 7 7 7 6 6 6 6 6 6 5 5 5 5 4 4 4 4
10 10 9 8 9 10 12 12 11 10 10 11 10 10 11 10 10 9 9 9 8 8 8 7 7 7 7 7 7 7 7 7 7 6 6 6 6 6 5 5 5 5 5 4 4 4 4 4 4
8 9 9 8 9 9 10 11 12 10 10 10 9 10 10 9 9 9 8 8 8 7 7 7 7 7 7 7 7 7 6 6 6 6 6 5 5 5 5 5 4 4 4 4 4 4 3 3 3
9 9 8 7 7 8 9 9 11 10 9 9 9 10 9 8 8 8 7 7 7 6 6 6 6 6 6 6 6 6 6 6 6 5 5 5 5 5 4 4 4 4 4 4 3 3 3 3 3
Wind_Speed
9 11 8 3 3 5 8 8 4 3 4 5 7 5 5 7 6 10 5 8 12 13 14 14 14 14 14 13 13 13 13 12 12 11 11 11 11 11 11 10 10 10 9 9 8 8 8 8 7
10 8 5 4 4 6 8 9 5 4 6 6 5 4 4 8 9 9 6 9 12 13 14 13 14 14 14 14 14 13 13 12 12 12 11 11 11 11 10 10 10 10 9 9 8 8 8 7 7
11 9 4 4 6 7 5 3 5 8 9 4 2 3 4 7 9 6 8 9 12 13 14 14 15 14 14 14 14 13 13 12 12 12 12 11 11 11 11 11 10 10 10 10 9 8 8 7 7
6 4 5 7 12 9 4 4 8 7 5 3 5 5 6 6 5 8 10 10 12 13 15 15 15 14 14 14 14 13 13 12 12 12 12 12 11 11 11 11 10 10 10 10 10 9 9 8 6
5 4 6 8 13 9 3 5 6 5 7 6 4 5 6 6 10 11 9 10 12 12 14 15 16 15 14 14 14 13 13 12 12 11 11 11 11 11 10 10 10 10 10 10 9 9 9 8 8
4 5 7 10 12 9 4 4 5 5 5 6 5 4 7 8 9 9 8 10 11 13 13 14 15 15 14 14 13 13 12 12 11 11 10 10 10 10 10 10 10 9 9 9 8 8 8 8 7
6 5 9 11 9 7 6 6 6 5 5 6 5 4 8 9 8 8 8 9 11 11 11 11 13 13 14 14 13 12 12 11 11 10 9 9 9 9 10 10 9 8 8 7 7 7 7 7 7
5 5 8 10 9 5 4 5 3 3 3 2 3 4 8 10 9 8 8 8 9 9 9 9 11 11 11 12 12 12 11 10 10 9 7 7 8 8 8 8 8 8 7 6 6 6 6 5 5
5 5 8 8 7 3 5 4 3 3 2 2 5 6 11 15 11 9 8 7 8 8 7 7 8 9 10 10 10 10 10 9 8 7 6 5 6 6 6 6 6 6 6 5 5 5 5 5 4
5 6 7 4 4 1 4 4 4 3 3 3 6 10 14 13 11 10 9 9 8 8 7 7 7 7 7 8 8 7 7 6 6 6 5 6 6 5 5 4 4 4 4 4 4 4 4 4 4
7 7 6 4 5 4 1 2 3 5 6 7 10 13 13 11 10 10 9 9 8 8 7 7 7 6 6 5 5 5 6 5 6 6 5 5 5 4 4 4 3 3 4 4 4 4 3 3 3
9 8 7 3 3 2 2 2 4 6 3 2 8 14 14 12 11 10 9 9 9 9 8 7 7 6 5 5 4 4 4 4 4 5 6 5 3 3 3 3 4 4 4 3 4 3 3 4 4
13 9 6 2 1 3 4 5 4 5 2 3 6 11 12 11 10 9 8 9 9 9 8 7 7 6 4 4 3 4 3 4 5 5 5 5 3 2 2 2 3 4 4 3 3 3 3 3 3
7 8 8 6 6 5 6 7 7 6 5 6 7 9 11 11 10 9 9 9 9 9 9 7 7 6 5 4 3 3 4 5 5 5 5 5 4 3 2 2 2 3 4 4 3 3 2 2 2
4 6 8 8 9 6 5 9 12 10 7 8 9 9 10 10 10 9 9 9 10 9 9 8 7 7 6 5 3 3 4 5 4 4 5 5 4 4 3 1 1 2 4 4 4 3 3 2 3
6 7 8 9 11 8 7 10 8 9 11 10 10 10 10 10 10 9 9 9 10 10 9 8 7 7 6 5 3 3 4 4 3 4 4 4 4 3 3 1 1 3 3 3 2 2 2 3 3
8 8 10 8 11 9 9 8 5 7 10 10 10 9 10 10 10 9 10 9 10 10 10 9 8 7 6 5 3 3 4 3 3 4 4 3 3 3 2 1 2 3 2 2 2 2 2 3 3
9 10 10 9 9 10 10 9 6 6 8 9 9 9 9 10 10 9 10 9 9 10 10 9 8 7 6 5 4 3 3 2 3 3 3 3 2 2 2 1 2 3 1 2 2 3 3 3 3
7 8 9 4 6 7 10 10 9 8 8 9 9 9 9 9 9 10 10 9 9 10 10 9 9 7 6 4 4 3 2 1 1 2 3 2 2 2 2 1 1 2 1 2 2 2 3 3 3
12 9 7 1 4 4 6 11 9 9 10 9 8 8 9 8 9 9 9 10 10 10 9 9 9 8 7 5 4 3 3 2 1 1 2 2 1 1 1 0 1 1 2 3 2 2 2 3 3
12 10 8 4 2 4 5 8 11 10 11 9 9 7 7 9 9 9 9 8 9 10 10 9 8 8 7 6 4 3 2 2 1 1 1 1 1 0 1 1 1 2 2 2 3 2 3 3 3
10 7 6 3 3 4 6 5 6 8 10 10 9 8 7 7 8 9 9 9 8 8 8 8 8 7 7 6 5 5 3 2 2 2 1 1 1 1 1 1 1 2 2 3 3 3 3 3 4
3 1 3 3 5 4 6 5 6 7 8 9 8 8 7 6 7 9 10 9 8 7 7 8 8 7 6 6 6 5 3 2 1 1 1 1 1 1 2 2 2 2 3 3 4 4 4 3 4
4 3 1 2 3 6 9 8 5 5 8 9 8 7 7 6 6 8 9 9 8 7 7 7 7 6 6 6 5 5 4 3 2 2 2 2 1 2 2 2 2 3 3 3 4 4 5 5 5
6 6 3 3 4 8 7 7 5 2 3 6 8 7 7 7 6 8 9 9 8 8 7 6 7 6 6 5 5 4 4 3 3 3 2 2 2 2 3 3 3 3 4 4 5 5 6 6 6
9 8 6 6 6 4 5 7 3 3 5 6 7 7 7 6 6 7 8 9 8 8 7 7 6 6 5 5 4 4 3 3 2 2 1 2 2 2 3 3 4 4 5 5 5 5 6 6 6
7 8 4 2 2 2 5 4 2 4 5 5 7 7 6 6 6 7 8 8 8 7 6 6 6 5 5 5 4 3 3 2 2 2 1 2 2 2 3 4 5 5 5 6 5 5 6 6 7
4 4 3 4 5 5 6 8 7 9 8 7 7 6 6 6 6 7 7 7 7 6 5 5 5 4 5 4 3 3 3 2 2 2 2 2 2 3 3 4 5 5 6 6 6 6 6 7 7
6 5 5 4 4 4 4 2 2 8 9 8 7 7 7 6 6 6 6 6 6 6 5 4 4 4 3 3 2 2 2 1 1 2 2 2 3 3 4 5 5 6 6 6 6 7 7 8 8
5 6 6 5 5 4 2 1 3 8 8 8 7 8 8 7 6 5 5 6 6 5 4 4 3 4 3 2 2 2 1 1 1 2 2 2 3 3 4 4 5 6 6 6 7 8 7 8 8
Wind_Direction
263 247 234 231 229 232 239 242 237 97 45 28 24 29 29 34 45 111 152 107 107 111 109 103 100 97 95 94 93 90 88 88 86 85 84 84 81 78 79 79 75 72 71 70 68 64 64 61 59
265 234 226 231 235 232 235 225 218 121 89 61 32 27 48 79 82 104 114 107 110 109 106 105 103 99 97 94 93 91 89 87 86 85 84 84 81 78 77 77 75 71 67 65 63 58 56 58 55
262 237 224 224 229 234 247 163 131 97 96 111 105 22 39 82 99 109 122 119 108 106 103 105 106 102 99 96 93 90 89 86 85 85 84 83 81 78 73 73 73 70 67 64 59 54 50 52 50
234 216 241 241 242 242 264 81 88 105 117 143 129 97 69 39 81 114 129 120 110 106 103 105 106 104 101 97 93 90 88 87 85 84 82 81 79 76 73 71 71 69 66 63 58 53 48 47 44
240 227 224 236 245 254 257 100 108 146 156 171 160 115 90 73 96 117 129 120 113 108 106 108 105 102 99 98 95 92 88 87 85 84 82 80 78 76 73 70 69 68 65 59 54 49 44 42 39
227 235 227 229 233 232 218 139 157 193 174 159 153 122 108 125 121 129 125 117 111 111 110 109 105 102 99 97 95 92 90 87 85 84 83 82 79 76 72 69 68 67 64 59 55 48 44 40 33
241 245 247 247 235 214 190 163 184 194 184 167 148 121 126 140 131 130 120 112 110 112 115 115 111 105 100 97 95 94 92 89 85 83 83 84 81 77 73 67 65 64 61 56 51 45 41 36 29
259 269 248 250 246 228 159 158 179 190 185 113 117 137 143 143 138 129 118 109 111 115 118 122 120 114 107 101 99 97 95 93 91 88 87 89 86 80 75 69 63 59 55 49 44 38 34 27 22
265 254 248 240 240 204 134 153 137 43 60 70 52 59 124 133 139 131 124 116 116 116 117 116 112 111 112 112 109 107 101 98 97 91 83 81 80 83 77 72 65 57 49 40 33 28 23 15 8
220 240 249 296 338 58 127 152 147 148 167 147 102 90 117 135 145 149 148 143 135 132 123 116 111 108 110 112 115 111 103 98 89 84 76 73 68 74 82 81 69 51 37 25 20 14 9 10 4
209 240 261 299 7 13 87 170 182 192 201 185 158 143 143 151 159 162 157 150 144 135 121 113 111 105 101 100 108 101 97 90 80 76 72 70 65 62 61 57 44 34 29 18 1 359 358 1 5
235 241 263 288 24 340 255 238 223 223 228 105 141 149 154 164 171 171 165 154 142 131 123 115 112 107 102 101 103 100 93 87 77 66 63 67 56 46 44 50 35 31 26 14 359 350 357 358 360
232 248 248 263 215 265 266 250 253 242 224 107 117 144 162 172 176 173 162 149 138 133 132 126 121 116 107 98 98 94 94 92 90 78 61 62 64 55 42 41 30 27 19 11 353 349 351 346 344
226 235 239 227 218 223 233 239 235 231 200 170 160 168 174 177 178 171 165 154 144 141 138 132 130 125 117 111 105 98 97 97 88 81 69 62 60 55 42 29 24 17 7 358 351 335 326 317 323
251 245 239 223 214 210 217 240 228 218 202 194 182 182 181 180 179 174 166 157 148 145 138 137 137 131 129 126 119 107 108 103 95 89 78 65 57 49 44 31 15 4 0 352 345 333 336 322 327
224 229 231 214 201 192 198 243 221 196 197 205 196 189 182 182 180 173 162 154 147 144 141 141 143 137 135 129 124 109 106 101 100 100 90 74 58 51 38 29 0 359 360 347 313 320 331 325 322
211 221 221 210 191 177 199 244 216 177 188 204 201 193 182 180 180 171 161 156 151 148 144 142 140 141 137 131 121 105 102 101 99 98 95 85 65 50 40 18 357 2 357 326 318 331 321 312 308
203 216 223 210 181 186 206 235 221 195 197 205 203 195 187 183 180 168 163 157 149 143 140 143 141 142 136 131 120 107 104 105 98 97 98 88 73 50 32 14 356 358 341 326 322 315 317 306 299
253 241 235 208 156 190 221 237 228 214 209 211 209 197 191 187 172 163 159 152 144 141 144 149 149 149 140 138 137 133 138 140 121 107 115 99 74 48 41 4 344 337 323 310 310 312 314 310 311
258 259 255 188 139 183 241 253 241 218 214 208 207 203 192 181 166 160 157 154 151 149 151 152 152 149 145 146 145 143 142 148 146 128 124 123 98 33 5 360 301 305 314 314 310 309 304 305 321
234 241 243 224 153 226 256 265 235 220 211 209 208 207 193 176 167 159 157 155 152 154 157 156 151 150 148 143 131 121 102 93 87 150 179 161 153 251 318 326 307 297 291 293 291 292 298 296 302
228 232 240 220 197 232 201 261 233 205 199 200 200 198 196 182 165 159 158 154 154 153 149 147 149 150 147 141 139 142 150 173 200 182 197 232 190 218 263 283 294 288 287 289 293 301 286 286 292
216 224 218 218 237 265 226 241 255 203 196 192 187 186 185 174 160 157 156 153 146 136 140 145 148 148 145 144 148 154 163 183 170 161 188 231 236 230 245 251 271 275 277 278 285 289 283 273 270
154 127 147 239 245 248 220 215 252 210 191 174 168 167 165 160 152 146 145 139 132 130 134 142 147 149 148 148 153 160 165 162 164 192 210 232 246 248 251 253 256 264 273 273 274 275 274 271 268
177 155 150 187 218 238 204 207 233 192 142 149 153 157 152 152 147 141 139 140 139 139 143 145 147 148 150 150 159 166 169 168 185 203 211 230 258 271 260 276 268 270 267 267 270 272 268 267 266
199 193 181 186 206 219 192 215 211 129 101 103 115 124 132 136 132 130 135 139 140 142 145 148 150 152 155 159 166 169 164 165 186 203 223 238 248 254 256 269 272 272 270 274 272 270 269 268 265
183 220 248 280 283 236 216 194 181 124 120 123 121 117 125 130 124 124 125 128 133 139 144 148 150 154 157 160 158 164 161 162 182 206 228 246 249 267 271 272 272 273 273 272 273 270 273 272 266
220 189 177 188 197 226 222 203 192 172 173 151 142 137 128 120 119 121 124 125 127 134 138 143 145 148 149 149 159 166 172 176 187 211 226 239 250 265 270 274 273 274 277 275 272 274 271 274 274
190 199 196 193 222 206 225 209 58 147 147 144 142 136 127 119 117 118 123 122 121 126 135 137 133 124 129 146 157 163 174 182 194 222 232 239 252 259 268 277 280 281 281 279 279 276 277 277 277
218 205 188 183 222 221 241 267 57 97 106 109 115 117 117 119 114 109 112 117 122 127 131 130 127 125 134 137 145 153 162 179 219 241 254 252 256 260 267 277 282 284 288 287 288 285 281 278 278
Height
1481 1483 1486 1490 1492 1491 1484 1470 1460 1461 1463 1465 1467 1468 1472 1478 1482 1496 1497 1497 1497 1498 1500 1502 1504 1506 1508 1509 1511 1512 1513 1514 1515 1516 1517 1517 1518 1519 1519 1520 1521 1521 1522 1522 1523 1523 1523 1523 1524
1480 1484 1488 1489 1490 1491 1479 1465 1462 1462 1466 1469 1471 1472 1475 1482 1486 1491 1494 1497 1498 1498 1500 1502 1504 1506 1508 1509 1511 1512 1513 1514 1515 1516 1517 1518 1518 1519 1520 1520 1521 1521 1522 1522 1523 1523 1523 1523 1523
1480 1485 1487 1484 1483 1481 1469 1459 1460 1463 1468 1472 1474 1476 1479 1485 1488 1491 1494 1496 1498 1499 1500 1503 1505 1506 1508 1510 1511 1512 1513 1514 1515 1516 1517 1518 1519 1519 1520 1520 1521 1521 1522 1522 1522 1523 1523 1523 1523
1481 1485 1484 1482 1477 1467 1461 1459 1461 1465 1470 1473 1475 1479 1483 1487 1489 1491 1494 1497 1498 1499 1501 1503 1505 1506 1508 1510 1511 1512 1513 1515 1516 1516 1517 1518 1519 1519 1520 1520 1520 1521 1521 1522 1522 1522 1522 1523 1523
1481 1482 1482 1479 1473 1463 1458 1459 1463 1467 1470 1473 1475 1479 1485 1489 1489 1492 1495 1497 1498 1499 1501 1503 1505 1506 1508 1509 1511 1512 1513 1515 1516 1516 1517 1518 1518 1519 1519 1520 1520 1521 1521 1521 1521 1522 1522 1522 1522
1481 1477 1478 1477 1468 1461 1459 1460 1464 1467 1469 1472 1475 1479 1486 1489 1490 1493 1495 1497 1498 1499 1501 1503 1505 1506 1508 1509 1511 1512 1513 1514 1515 1516 1517 1517 1518 1519 1519 1519 1520 1520 1520 1520 1521 1521 1521 1521 1521
1479 1475 1473 1467 1463 1460 1458 1460 1464 1466 1468 1471 1474 1479 1485 1489 1490 1493 1495 1497 1498 1499 1501 1503 1505 1506 1508 1509 1511 1512 1513 1514 1515 1516 1516 1517 1517 1518 1518 1519 1519 1519 1519 1519 1519 1520 1520 1520 1520
1475 1473 1468 1464 1461 1459 1457 1460 1463 1466 1468 1471 1473 1477 1483 1486 1489 1492 1495 1497 1498 1500 1501 1503 1504 1506 1507 1509 1510 1511 1512 1513 1514 1515 1516 1516 1517 1517 1518 1518 1518 1518 1518 1518 1518 1518 1518 1518 1518
1474 1475 1468 1461 1458 1457 1457 1461 1464 1466 1469 1471 1473 1475 1478 1483 1488 1491 1494 1496 1498 1500 1501 1503 1504 1505 1507 1508 1510 1511 1512 1513 1514 1514 1515 1516 1516 1517 1517 1517 1517 1518 1518 1517 1517 1517 1517 1517 1517
1472 1472 1463 1457 1454 1455 1458 1461 1465 1468 1470 1473 1475 1477 1479 1482 1486 1489 1492 1494 1497 1499 1501 1502 1503 1505 1506 1508 1509 1510 1511 1512 1513 1514 1514 1515 1515 1516 1516 1516 1516 1516 1516 1516 1516 1516 1516 1516 1515
1467 1465 1460 1458 1457 1458 1460 1463 1465 1467 1470 1471 1473 1476 1479 1482 1485 1488 1491 1493 1496 1498 1499 1501 1503 1504 1505 1507 1508 1509 1510 1511 1512 1513 1513 1514 1514 1515 1515 1515 1515 1515 1515 1515 1515 1514 1514 1514 1513
1462 1460 1460 1459 1460 1461 1462 1464 1465 1466 1468 1469 1471 1473 1477 1481 1484 1487 1490 1492 1494 1496 1498 1500 1502 1503 1505 1506 1507 1508 1510 1511 1511 1512 1513 1513 1513 1514 1514 1514 1514 1514 1513 1513 1513 1513 1512 1512 1512
1460 1459 1459 1460 1461 1463 1464 1464 1465 1466 1467 1468 1470 1473 1475 1479 1482 1486 1488 1491 1492 1494 1496 1498 1500 1502 1504 1505 1506 1507 1509 1510 1511 1511 1512 1512 1512 1512 1513 1513 1512 1512 1512 1512 1511 1511 1510 1510 1509
1456 1458 1459 1459 1461 1462 1464 1464 1465 1464 1466 1467 1469 1472 1474 1477 1480 1484 1486 1488 1490 1492 1494 1496 1499 1501 1502 1504 1505 1506 1507 1509 1509 1510 1511 1511 1511 1511 1511 1511 1511 1511 1510 1510 1509 1509 1508 1507 1507
1456 1458 1458 1457 1459 1460 1463 1464 1461 1461 1463 1465 1467 1470 1473 1475 1478 1481 1483 1486 1488 1490 1492 1494 1497 1499 1500 1502 1504 1505 1506 1507 1508 1509 1509 1510 1510 1510 1510 1510 1510 1509 1509 1508 1507 1507 1506 1505 1504
1456 1458 1460 1453 1454 1457 1464 1463 1455 1456 1459 1462 1464 1467 1470 1473 1475 1478 1481 1484 1486 1488 1490 1492 1495 1497 1499 1500 1502 1503 1505 1506 1506 1507 1508 1508 1508 1508 1508 1508 1508 1507 1507 1506 1505 1504 1503 1502 1501
1456 1458 1455 1451 1448 1452 1459 1458 1452 1452 1455 1458 1460 1463 1466 1469 1472 1475 1478 1481 1483 1485 1487 1490 1492 1494 1496 1498 1500 1502 1503 1504 1505 1506 1506 1506 1507 1507 1507 1506 1506 1505 1505 1504 1503 1502 1501 1499 1498
1452 1451 1447 1447 1445 1449 1454 1454 1450 1450 1452 1454 1457 1459 1462 1465 1468 1472 1475 1478 1481 1483 1485 1487 1490 1492 1494 1496 1498 1500 1501 1502 1503 1504 1504 1505 1505 1505 1505 1504 1504 1503 1502 1501 1500 1499 1498 1497 1495
1441 1442 1442 1441 1442 1447 1451 1450 1448 1448 1449 1451 1453 1455 1458 1461 1465 1468 1472 1475 1477 1480 1482 1484 1487 1489 1491 1493 1495 1497 1498 1500 1501 1502 1503 1503 1503 1503 1502 1502 1501 1501 1500 1499 1498 1496 1495 1494 1493
1442 1443 1443 1443 1443 1447 1449 1448 1444 1443 1444 1446 1448 1451 1454 1458 1461 1464 1468 1471 1473 1476 1479 1482 1484 1486 1489 1491 1493 1495 1497 1498 1499 1500 1501 1501 1501 1500 1500 1499 1499 1498 1497 1496 1495 1494 1492 1491 1490
1441 1443 1442 1444 1446 1447 1450 1449 1441 1437 1439 1441 1444 1447 1450 1453 1456 1460 1464 1467 1470 1472 1475 1478 1481 1484 1486 1489 1491 1493 1494 1495 1497 1497 1498 1498 1498 1498 1497 1497 1496 1495 1494 1493 1492 1491 1489 1488 1487
1442 1438 1439 1443 1451 1454 1451 1458 1437 1433 1434 1437 1440 1443 1446 1449 1453 1456 1460 1463 1466 1470 1473 1475 1478 1481 1484 1486 1488 1489 1491 1492 1493 1494 1495 1495 1495 1495 1495 1494 1493 1492 1491 1490 1489 1488 1487 1485 1483
1438 1437 1440 1444 1449 1453 1449 1455 1441 1430 1433 1434 1436 1438 1442 1446 1449 1452 1456 1459 1463 1467 1470 1473 1476 1479 1481 1483 1485 1487 1489 1490 1491 1491 1492 1492 1492 1492 1492 1491 1490 1489 1488 1486 1485 1484 1483 1482 1480
1437 1441 1443 1446 1452 1461 1447 1451 1442 1430 1427 1430 1432 1436 1439 1443 1446 1450 1453 1457 1461 1464 1467 1470 1473 1475 1478 1480 1483 1484 1486 1487 1487 1488 1488 1488 1488 1488 1488 1488 1487 1485 1484 1483 1482 1480 1479 1478 1476
1438 1448 1459 1463 1465 1457 1436 1441 1437 1425 1423 1425 1429 1433 1437 1441 1444 1448 1451 1454 1457 1461 1464 1467 1470 1472 1475 1477 1479 1481 1483 1484 1484 1485 1485 1485 1484 1484 1484 1484 1483 1482 1480 1479 1478 1476 1474 1473 1471
1437 1440 1451 1457 1455 1443 1434 1437 1431 1423 1423 1425 1428 1432 1436 1439 1443 1446 1449 1452 1455 1458 1461 1464 1467 1469 1472 1474 1476 1478 1480 1481 1481 1482 1482 1481 1481 1481 1480 1480 1479 1477 1476 1475 1473 1471 1469 1468 1466
1436 1438 1433 1440 1438 1443 1436 1429 1428 1424 1425 1427 1429 1433 1436 1439 1442 1445 1448 1451 1453 1456 1459 1462 1464 1467 1469 1471 1473 1475 1476 1477 1478 1478 1478 1478 1478 1477 1476 1475 1474 1473 1471 1470 1468 1466 1464 1463 1461
1430 1432 1439 1445 1445 1441 1428 1425 1428 1427 1427 1427 1430 1433 1436 1439 1442 1444 1447 1450 1452 1455 1458 1460 1462 1464 1466 1468 1470 1471 1473 1474 1474 1475 1474 1474 1474 1473 1472 1471 1469 1468 1466 1465 1463 1461 1459 1457 1455
1432 1433 1434 1437 1436 1438 1433 1429 1419 1420 1422 1426 1430 1433 1436 1439 1442 1444 1447 1449 1451 1454 1456 1458 1460 1462 1463 1465 1467 1468 1469 1470 1470 1471 1471 1470 1470 1469 1467 1466 1464 1463 1461 1460 1458 1455 1454 1452 1449
1426 1427 1431 1439 1439 1434 1435 1436 1420 1420 1423 1427 1430 1434 1437 1440 1442 1444 1447 1449 1450 1452 1454 1456 1458 1459 1460 1462 1464 1465 1466 1466 1466 1467 1467 1466 1465 1464 1463 1461 1460 1458 1456 1454 1452 1450 1448 1446 1444